User: anonymous   Login
Location: ?astrovice
(49.6513°N, 14.9287°E)
Time: 09:51:36
(UTC+00:00)
Language:

Cosmos 1356 Rocket - Orbit

View from above orbital plane
View from above orbital plane
View from above satellite
View from above satellite

Ground track
Ground track

The orbit data is extracted from the following two-line orbital elements,

1 13154U 82039B   21167.90669004  .00000203  00000-0  14707-4 0  9995
2 13154  81.1835  20.5544 0039325 212.7688 147.1092 14.98915177122245
Epoch (UTC): 16 June 2021 21:45:38
Eccentricity: 0.0039325
inclination: 81.1835°
perigee height: 543 km
apogee height: 597 km
right ascension of ascending node: 20.5544°
argument of perigee: 212.7688°
revolutions per day: 14.98915177
mean anomaly at epoch: 147.1092°
orbit number at epoch: 12224

The dashed part of the orbit path shows where the satellite is in the earth's shadow,  

DLR